[Iaude] MPEC P40: 2024 PF [a=1.10,e=0.25,i=23.3,H=22.2]
    mpec at cfa.harvard.edu 
    mpec at cfa.harvard.edu
       
    Sat Aug  3 01:20:12 EDT 2024
    
    
  
M.P.E.C. 2024-P40                                Issued 2024 August 3, 05:18 UT
     The Minor Planet Electronic Circulars contain information on unusual
         minor planets, routine data on comets and natural satellites,
         and occasional editorial announcements.  They are published
    on behalf of Division F of the International Astronomical Union by the
          Minor Planet Center, Smithsonian Astrophysical Observatory,
                          Cambridge, MA 02138, U.S.A.
			  
             Prepared using the Tamkin Foundation Computer Network
                              MPC at CFA.HARVARD.EDU
            URL https://www.minorplanetcenter.net/    ISSN 1523-6714
                                    2024 PF                                     
Observations:
     K24P00F  C2024 07 28.43203121 17 13.452+10 44 20.50         21.65GVEP040F51
     K24P00F* C2024 08 01.38342721 02 38.379+12 42 27.92         21.67wXEP040F52
     K24P00F  C2024 08 01.39460221 02 35.783+12 42 46.91         21.86wXEP040F52
     K24P00F  C2024 08 01.40580921 02 33.190+12 43 05.61         22.10wXEP040F52
     K24P00F  C2024 08 01.41699521 02 30.589+12 43 24.44         22.06wXEP040F52
     K24P00F 3C2024 08 02.26117520 59 22.884+13 06 30.61         21.58GVEP040T14
     K24P00F 3C2024 08 02.26533220 59 21.942+13 06 37.41         21.65GVEP040T14
     K24P00F 3C2024 08 02.26630920 59 21.717+13 06 38.99         21.67GVEP040T14
     K24P00F KC2024 08 02.32675720 59 06.43 +13 08 11.7          22.0 GVEP040H21
     K24P00F KC2024 08 02.32964620 59 05.75 +13 08 16.3          21.9 GVEP040H21
     K24P00F KC2024 08 02.33243920 59 05.14 +13 08 21.2          21.6 GVEP040H21
     K24P00F KC2024 08 03.19444920 55 53.38 +13 31 06.4          22.4 GVEP040H21
     K24P00F KC2024 08 03.20311920 55 51.37 +13 31 19.9          21.9 GVEP040H21
Observer details:
F51 Pan-STARRS 1, Haleakala.  Observers J. Herman, T. Lowe, P. Minguez, A.
    Schultz, I. Smith.  Measurers K. Chambers, T. de Boer, J. Fairlamb, H.
    Gao, M. Huber, C.-C. Lin, E. Magnier, Y. Ramanjooloo, R. Wainscoat, R.
    Weryk.  1.8-m Ritchey-Chretien + CCD.
F52 Pan-STARRS 2, Haleakala.  Observers J. Herman, T. Lowe, P. Minguez, A.
    Schultz, I. Smith.  Measurers K. Chambers, T. de Boer, J. Fairlamb, H.
    Gao, M. Huber, C.-C. Lin, E. Magnier, Y. Ramanjooloo, R. Wainscoat, R.
    Weryk.  1.8-m Ritchey-Chretien + CCD.
H21 Astronomical Research Observatory, Westfield.  Observer R. Holmes.
    Measurers T. Linder, R. Holmes.  1.3-m f/4.0 astrograph + CCD.
T14 Canada-France-Hawaii Telescope, Maunakea.  Observers R. Wainscoat, A.
    Acohido, H. Flewelling.  Measurers R. Weryk, R. Wainscoat.  3.6-m f/4.1
    reflector + CCD.
Orbital elements:
2024 PF                                                  Earth MOID = 0.1341 AU
Epoch 2024 Oct. 17.0 TT = JDT 2460600.5                 MPC                     
M 231.25174              (2000.0)            P               Q                  
n   0.85604559     Peri.  209.10381     -0.76269682     -0.53660610             
a   1.0985120      Node   293.91600     +0.64302116     -0.56923978             
e   0.2511192      Incl.   23.26263     +0.06940709     -0.62291249             
P   1.15           H   22.28          G   0.15           U   7                  
Residuals in seconds of arc
240728 F51  0.0   0.1-    240802 T14  0.1-  0.1-    240802 H21  0.6+  0.3+
240801 F52  0.0   0.0     240802 T14  0.0   0.1-    240803 H21  0.1-  0.0
240801 F52  0.1-  0.1+    240802 T14  0.1-  0.1-    240803 H21  0.3-  0.1-
240801 F52  0.0   0.0     240802 H21  0.3+  0.1-
240801 F52  0.0   0.0     240802 H21  0.1+  0.1-
Ephemeris:
2024 PF                  a,e,i = 1.10, 0.25, 23                  q = 0.8227
Date    TT    R. A. (2000) Decl.     Delta      r    Elong.  Phase     V
2024 07 04    22 25 07.4 -04 01 41   0.4567  1.3345   125.4    38.4    22.7
...
2024 07 19    21 49 11.9 +05 15 19   0.4046  1.3565   141.5    27.8    22.2
...
2024 07 27    21 22 23.8 +09 58 03   0.3940  1.3647   147.7    23.5    22.0
...
2024 08 02    21 00 20.2 +12 59 30   0.3953  1.3692   149.1    22.4    22.0
2024 08 03    20 56 36.6 +13 26 11   0.3963  1.3699   149.0    22.4    22.0
2024 08 04    20 52 53.4 +13 51 45   0.3976  1.3704   148.9    22.5    22.0
...
2024 08 10    20 31 06.9 +16 00 26   0.4096  1.3731   146.2    24.3    22.2
...
2024 08 18    20 05 18.7 +17 47 01   0.4363  1.3744   139.7    28.4    22.4
...
2024 09 02    19 32 29.0 +18 34 10   0.5095  1.3700   125.6    36.8    23.0
A. U. Tomatic                (C) Copyright 2024 MPC           M.P.E.C. 2024-P40
    
    
More information about the Iaude
mailing list